Regional Weather Roundup
Issued by NWS

Home | Current Version | Previous Version | Graphics & Text | Print | Product List | Glossary On
Versions: 1 2 3 4 5 6 7 8 9 10 11 12 13 14 15 16 17 18 19 20 21 22 23 24 25 26 27 28 29 30 31 32 33 34 35 36 37 38 39 40 41 42 43 44 45 46 47 48 49 50
630
ASUS43 KIND 261209
RWRIN

WEATHER ROUNDUP FOR INDIANA
NATIONAL WEATHER SERVICE INDIANAPOLIS IN
800 AM EDT SUN MAR 26 2017

NOTE: "FAIR" INDICATES FEW OR NO CLOUDS BELOW 12,000 FEET WITH NO
SIGNIFICANT WEATHER AND/OR OBSTRUCTIONS TO VISIBILITY.

* - STATION DOES NOT REPORT WEATHER SUCH AS PRECIPITATION OR FOG.

+ - STATION NOT QUALITY CONTROLLED BY THE NATIONAL WEATHER SERVICE.
    USE DATA WITH CAUTION...ESPECIALLY DEWPOINT AND RELATIVE
    HUMIDITY OBSERVATIONS.

INZ001>003-010>013-019-020-261300-
NORTHWEST INDIANA

CITY           SKY/WX    TMP DP  RH WIND       PRES   REMARKS
GARY /AIRPORT/ RAIN      52  50  93 SE14      29.87S
KNOX *+        CLOUDY    48  43  81 SE6       29.90S
LA PORTE +     LGT RAIN  47  47  99 E6        29.91S
6HR MIN TEMP:  46; 6HR MAX TEMP:  47; 6HR PCP:  0.08;

MICHIGAN CITY+ LGT RAIN  46  46 100 SE3       29.90F
MONTICELLO +   RAIN      53  52  95 E5        29.89S
6HR MIN TEMP:  50; 6HR MAX TEMP:  53; 6HR PCP:  0.36;

RENSSELAER +   DRIZZLE   54  52  94 E6        29.88S
VALPARAISO     LGT RAIN  50  49  96 E8        29.89S FOG
6HR MIN TEMP:  49; 6HR MAX TEMP:  50; 6HR PCP:  0.31;


$$

LMZ046-743>745-261300-
SOUTHERN LAKE MICHIGAN

STATION/POSITION TIME  TEMP    WIND        PRES    WAVE
                       AIR SEA DIR/SP/G            HT
                 (UTC) (F)     (DEG/KT/KT) (MB)    (FT)
BURNS HARBOR     1140   51     130/ 12/ 18 1012.2F
MICHIGAN CITY    1140   49     120/ 12/ 16   N/A

$$

INZ004-005-014>016-021>024-261300-
NORTH CENTRAL INDIANA

CITY           SKY/WX    TMP DP  RH WIND       PRES   REMARKS
ELKHART        RAIN      45  45 100 E7        29.93
GOSHEN         LGT RAIN  46  43  89 SE7       29.94R FOG
6HR MIN TEMP:  43; 6HR MAX TEMP:  46; 6HR PCP:  0.12;

LOGANSPORT +   RAIN      52  52 100 E6        29.91S
PERU/GRISSOM   LGT RAIN  55  55 100 SE7       29.89F
6HR MIN TEMP:  48; 6HR MAX TEMP:  55; 6HR PCP:  0.29;

ROCHESTER +    DRIZZLE   52  52 100 SE7       29.92S
SOUTH BEND     LGT RAIN  45  50 100 E10       29.92F
6HR MIN TEMP:  44; 6HR MAX TEMP:  45; 6HR PCP:  0.20;

WARSAW +       LGT RAIN  45  45 100 SE3       29.93S

$$

INZ006>009-017-018-025>027-261300-
NORTHEAST INDIANA

CITY           SKY/WX    TMP DP  RH WIND       PRES   REMARKS
ANGOLA *+      CLOUDY    39  39 100 SE7       29.97R
AUBURN +       DRIZZLE   41  37  87 E7        29.98S
FORT WAYNE     LGT RAIN  43  41  93 E12       29.96F FOG
6HR MIN TEMP:  42; 6HR MAX TEMP:  44; 6HR PCP:  0.13;

HUNTINGTON +   RAIN      46  45  96 E8        29.94F
6HR MIN TEMP:  42; 6HR MAX TEMP:  47; 6HR PCP:  0.15;

KENDALLVILLE + LGT RAIN  41  41 100 E7        29.96S

$$

INZ028-029-035-036-043>045-051>053-261300-
WEST CENTRAL INDIANA

CITY           SKY/WX    TMP DP  RH WIND       PRES   REMARKS
CRAWFORDSVL +  DRIZZLE   55  55 100 S9        29.90R
6HR MIN TEMP:  55; 6HR MAX TEMP:  57; 6HR PCP:  0.56;

GREENCASTLE +  CLOUDY    55  54  94 S6        29.91R
LAFAYETTE      LGT RAIN  56  56 100 S10       29.88R
6HR MIN TEMP:  56; 6HR MAX TEMP:  60; 6HR PCP:  0.54;

TERRE HAUTE    LGT RAIN  56  54  93 S6        29.90R
6HR MIN TEMP:  56; 6HR MAX TEMP:  60; 6HR PCP:  0.27;


$$

INZ030>032-037>040-046>048-054>057-064-065-261300-
CENTRAL INDIANA

CITY           SKY/WX    TMP DP  RH WIND       PRES   REMARKS
CP ATTERBURY + LGT RAIN  55  54  94 SE8       29.94R
COLUMBUS       CLOUDY    55  55 100 S12       29.94S
FRANKFORT +    HVY RAIN  58  57  95 S9        29.91S
6HR MIN TEMP:  58; 6HR MAX TEMP:  60; 6HR PCP:  0.37;

GREENWOOD *+   CLOUDY    57  57 100 S10G16    29.93S
6HR MIN TEMP:  56; 6HR MAX TEMP:  59;

INDIANAPOLIS   HVY RAIN  56  55  97 VRB3      29.91R FOG
6HR MIN TEMP:  56; 6HR MAX TEMP:  58; 6HR PCP:  0.46;

-EAGLE CREEK   LGT RAIN  57  55  93 S9        29.91R
6HR MIN TEMP:  57; 6HR MAX TEMP:  59; 6HR PCP:  0.32;

KOKOMO +       LGT RAIN  56  54  93 SE12      29.91F
6HR MIN TEMP:  49; 6HR MAX TEMP:  56; 6HR PCP:  0.31;

MARION +       LGT RAIN  55  54  99 SE7       29.93F
MT COMFORT *+  CLOUDY    55  54  94 S9G16     29.93S
SHELBYVILLE    LGT RAIN  58  54  86 S14       29.93S
6HR MIN TEMP:  58; 6HR MAX TEMP:  62; 6HR PCP:  0.32;

ZIONSVILLE +   RAIN      55  54  95 S10       29.92R
6HR MIN TEMP:  55; 6HR MAX TEMP:  57; 6HR PCP:  0.32;


$$

INZ033-034-041-042-049-050-058-059-261300-
EAST CENTRAL INDIANA

CITY           SKY/WX    TMP DP  RH WIND       PRES   REMARKS
MUNCIE         LGT RAIN  58  55  90 S7        29.94S
6HR MIN TEMP:  54; 6HR MAX TEMP:  61; 6HR PCP:  0.25;

RICHMOND +     LGT RAIN  54  54 100 SE7       29.97F

$$

INZ060-061-067>069-081>083-085>088-261300-
SOUTHWEST INDIANA

CITY           SKY/WX    TMP DP  RH WIND       PRES   REMARKS
EVANSVILLE     CLOUDY    57  54  89 S7        29.93R
6HR MIN TEMP:  57; 6HR MAX TEMP:  60; 6HR PCP:  0.02;

HUNTINGBURG *+ LGT RAIN  57  55  93 S5        29.94R
6HR MIN TEMP:  57; 6HR MAX TEMP:  60; 6HR PCP:  0.08;

WASHINGTON +   DRIZZLE   57  55  94 MISG      29.92R
6HR MIN TEMP:  57; 6HR MAX TEMP:  59; 6HR PCP:  0.10;


$$

INZ062-063-066-070>080-084-089>092-261300-
SOUTH CENTRAL AND SOUTHEAST INDIANA

CITY           SKY/WX    TMP DP  RH WIND       PRES   REMARKS
BLOOMINGTON    CLOUDY    57  54  89 S7        29.92R
6HR MIN TEMP:  57; 6HR MAX TEMP:  58; 6HR PCP:  0.39;

MADISON *+     CLOUDY    55  54  94 S7        29.99R
NORTH VERNON + RAIN     N/A N/A N/A S7        29.96S

$$





USA.gov is the U.S. government's official web portal to all federal, state and local government web resources and services.